Location: Felice (historical)
(38.3907°N, 122.5333°W)
Time: 08:24:20
(UTC+00:00)

Daily predictions for brighter satellites

Satellite Brightness Start Highest point End
(mag) Time Altitude Azimuth Time Altitude Azimuth Time Altitude Azimuth
Nadezhda 4 Rocket 4.5 12:21:28 54° SE 12:21:28 54° SE 12:26:19 10° SSE
CZ-4C R/B 3.1 12:29:20 60° SSW 12:29:20 60° SSW 12:36:30 10° SSE
Cosmos 2263 Rocket 3.1 12:41:51 37° NNE 12:41:51 37° NNE 12:45:07 10° NNE
H-2A R/B 3.6 12:49:11 18° SSE 12:49:11 18° SSE 12:53:03 10° ESE
Meteor 1-20 Rocket 4.3 12:46:43 10° S 12:52:33 80° E 12:58:24 10° NNE
Cosmos 44 3.4 12:59:05 55° SSE 12:59:51 66° ESE 13:04:25 10° NE
Cosmos 1634 Rocket 4.0 12:55:45 10° S 13:01:55 79° E 13:08:07 10° N
STARLINK 1053 4.5 13:05:26 41° ESE 13:05:26 41° ESE 13:07:57 10° SE
Cosmos 1452 Rocket 3.8 13:06:22 51° NNW 13:06:22 51° NNW 13:10:30 10° NNE
STARLINK 1061 4.2 13:08:30 46° ESE 13:08:30 46° ESE 13:11:09 10° SE
COSMO-SKYMED 1 3.3 13:05:51 10° SSE 13:10:02 51° ENE 13:12:34 22° N
STARLINK 1067 4.0 13:11:48 51° ESE 13:11:48 51° ESE 13:14:36 10° SE
Cosmos 1844 Rocket 4.4 13:06:27 10° SSE 13:11:22 33° ESE 13:16:18 10° NE
FALCON 9 R/B 3.4 13:09:49 39° WSW 13:13:02 73° S 13:37:21 10° E
Cosmos 1850 Rocket 4.5 13:10:06 23° N 13:13:27 60° ENE 13:18:41 10° SSE
ALOS 3.1 13:09:25 10° NNE 13:13:59 49° E 13:18:29 10° S
STARLINK 1058 3.8 13:15:01 56° SE 13:15:01 56° SE 13:17:57 10° SE
GPS 2-04 Rocket1 4.3 13:15:20 23° S 13:16:19 26° SSE 13:19:42 10° E
Cosmos 1627 Rocket 4.5 13:10:18 10° N 13:16:36 88° ENE 13:22:58 10° S
STARLINK 1043 3.6 13:18:20 62° SE 13:18:20 62° SE 13:21:25 10° SE
Cosmos 1340 2.6 13:14:23 10° S 13:18:07 79° E 13:21:54 10° NNE
Cosmos 2195 Rocket 4.4 13:13:05 10° N 13:19:26 81° W 13:25:43 10° S
COBE Rocket 4.4 13:15:35 10° S 13:19:09 40° SW 13:19:09 40° SW
STARLINK 1065 3.4 13:21:35 66° SSE 13:21:35 66° SSE 13:24:46 10° SE
Timation 1 Rocket 4.4 13:20:24 46° W 13:21:23 50° WNW 13:27:12 10° NNE
Cosmos 1346 Rocket 2.7 13:18:16 10° S 13:22:07 79° E 13:26:01 10° NNE
Cosmos 1703 Rocket 4.1 13:23:44 42° SW 13:23:44 42° SW 13:26:58 10° S
CZ-4B R/B 4.4 13:18:33 10° NNE 13:23:57 45° E 13:29:20 10° S
STARLINK 1063 3.3 13:24:58 68° S 13:24:58 68° S 13:28:17 10° SE
USA 234 3.4 13:18:33 10° NE 13:24:49 51° NW 13:27:10 35° W
Cosmos 2221 Rocket 4.3 13:21:14 10° N 13:25:34 52° E 13:29:52 10° SSE
STARLINK 1064 3.3 13:28:11 66° SSW 13:28:11 66° SSW 13:31:37 10° SE
Helios 1A Rocket 4.2 13:25:06 10° NNE 13:28:55 40° E 13:32:43 10° S
Cosmos 1092 Rocket 4.0 13:26:48 20° NNW 13:30:52 53° W 13:36:46 10° SSW
Cosmos 2142 Rocket 4.4 13:24:30 10° S 13:30:55 81° W 13:37:20 10° N
STARLINK 1041 3.3 13:31:29 62° SW 13:31:29 62° SW 13:35:02 10° SE
Meteor 1-18 Rocket 4.1 13:26:53 13° NNW 13:31:51 77° W 13:37:26 10° S
Cosmos 1943 3.2 13:30:50 37° NW 13:32:45 55° WSW 13:38:11 10° S
STARLINK 1027 4.3 13:34:20 26° S 13:34:20 26° S 13:36:02 10° SSE
STARLINK 1028 4.3 13:34:31 26° S 13:34:31 26° S 13:36:12 10° SSE
STARLINK 1021 4.3 13:34:48 26° S 13:34:48 26° S 13:36:30 10° SSE
STARLINK 1019 4.3 13:34:59 27° S 13:34:59 27° S 13:36:46 10° SSE
SKYMED 3 4.4 13:29:46 10° S 13:34:06 83° WSW 13:36:57 21° NNW
STARLINK 1012 4.3 13:35:11 26° S 13:35:11 26° S 13:36:53 10° SSE
STARLINK 1010 4.3 13:35:24 26° S 13:35:24 26° S 13:37:06 10° SSE
STARLINK 1026 4.3 13:35:38 26° S 13:35:38 26° S 13:37:20 10° SSE
STARLINK 1013 4.3 13:35:50 26° S 13:35:50 26° S 13:37:32 10° SSE
STARLINK 1038 3.3 13:34:48 57° SW 13:34:53 57° SW 13:38:27 10° SE
STARLINK 1009 4.3 13:36:04 26° S 13:36:04 26° S 13:37:47 10° SSE
STARLINK 1015 4.3 13:36:18 26° S 13:36:18 26° S 13:38:03 10° SSE
STARLINK 1016 4.3 13:36:31 26° S 13:36:31 26° S 13:38:16 10° SSE
Cosmos 1869 Rocket 4.1 13:31:36 10° SSW 13:38:34 19° NNW 13:39:56 10° N
STARLINK 1008 4.3 13:36:45 26° S 13:36:45 26° S 13:38:29 10° SSE
STARLINK 1014 4.3 13:36:55 26° S 13:36:55 26° S 13:38:38 10° SSE
STARLINK 1025 4.3 13:37:07 26° S 13:37:07 26° S 13:38:51 10° SSE
STARLINK 1017 4.3 13:37:25 26° S 13:37:25 26° S 13:39:11 10° SSE
STARLINK 1023 4.3 13:37:34 26° S 13:37:34 26° S 13:39:19 10° SSE
STARLINK 1007 4.3 13:37:49 26° S 13:37:49 26° S 13:39:36 10° SSE
STARLINK 1048 4.3 13:38:01 26° S 13:38:01 26° S 13:39:46 10° SSE
STARLINK 1049 4.3 13:38:12 26° S 13:38:12 26° S 13:39:57 10° SSE
Okean O Rocket 2.2 13:32:58 10° NNE 13:37:20 60° E 13:41:42 10° S
STARLINK 1051 4.3 13:38:25 26° S 13:38:25 26° S 13:40:12 10° SSE
STARLINK 1037 4.3 13:38:39 26° SSW 13:38:39 26° SSW 13:40:25 10° SSE
STARLINK 1059 4.3 13:38:51 26° SSW 13:38:51 26° SSW 13:40:38 10° SSE
STARLINK 1057 4.3 13:39:07 26° SSW 13:39:07 26° SSW 13:40:55 10° SSE
STARLINK 1046 3.4 13:38:07 51° WSW 13:38:19 52° SW 13:41:52 10° SSE
STARLINK 1052 4.3 13:39:13 26° SSW 13:39:13 26° SSW 13:40:59 10° SSE
STARLINK 1068 4.3 13:39:33 26° SSW 13:39:33 26° SSW 13:41:21 10° SSE
STARLINK 1034 4.3 13:39:39 26° SSW 13:39:39 26° SSW 13:41:28 10° SSE
STARLINK 1029 4.3 13:39:47 26° SSW 13:39:47 26° SSW 13:41:35 10° SSE
STARLINK 1060 4.3 13:39:59 26° SSW 13:39:59 26° SSW 13:41:47 10° SSE
STARLINK 1030 4.2 13:40:10 26° SSW 13:40:10 26° SSW 13:42:04 10° SSE
STARLINK 1020 4.3 13:40:25 25° SSW 13:40:25 25° SSW 13:42:14 10° SSE
STARLINK 1040 4.4 13:40:59 23° SSW 13:40:59 23° SSW 13:42:39 10° SSE
STARLINK 1033 4.3 13:41:03 25° SSW 13:41:03 25° SSW 13:42:52 10° SSE
STARLINK 1031 4.3 13:41:13 25° SSW 13:41:13 25° SSW 13:43:01 10° SSE
STARLINK 1024 4.2 13:41:28 26° SSW 13:41:28 26° SSW 13:43:22 10° SSE
STARLINK 1035 4.3 13:41:39 25° SSW 13:41:39 25° SSW 13:43:28 10° SSE
STARLINK 1032 4.3 13:41:54 25° SSW 13:41:54 25° SSW 13:43:43 10° SSE
STARLINK 1011 4.2 13:42:06 26° SSW 13:42:06 26° SSW 13:44:01 10° SSE
STARLINK 1036 4.3 13:42:22 25° SSW 13:42:22 25° SSW 13:44:13 10° SSE
STARLINK 1039 3.5 13:41:26 46° WSW 13:41:47 48° SW 13:45:17 10° SSE
STARLINK 1047 4.3 13:42:45 25° SSW 13:42:45 25° SSW 13:44:35 10° SSE
STARLINK 1045 3.6 13:43:26 43° WSW 13:43:51 46° SW 13:47:21 10° SSE
PSLV R/B 2.9 13:45:26 57° SE 13:45:26 57° SE 13:47:28 10° ESE
Cosmos 1331 Rocket 3.9 13:42:29 10° SSW 13:47:38 90° E 13:52:50 10° NNE
PAYLOAD B 4.1 13:51:01 10° N 13:56:31 69° WNW 14:02:01 10° SSW
Okean 1-7 4.0 13:57:26 25° W 13:57:26 25° W 14:01:00 10° SW
SKYMED 2 3.9 13:54:01 10° S 13:58:09 43° W 14:01:13 17° NNW
MOS 1-B 4.4 13:52:50 10° N 13:58:27 53° WNW 14:04:00 10° SW
Geosat 3.9 13:54:18 10° SSE 13:59:18 75° WSW 14:04:04 11° NNW
Cosmos 1110 Rocket 4.0 13:57:50 10° SSW 14:02:56 58° WNW 14:08:03 10° N
Cosmos 304 Rocket 4.3 13:58:42 10° S 14:03:24 62° ESE 14:08:08 10° NNE
Meteor 1-5 Rocket 4.3 14:01:24 10° S 14:07:22 86° W 14:13:14 10° N
NOSS 3-2 (A) 3.3 14:05:19 10° SSW 14:10:57 89° WNW 14:17:18 10° NNE
Cosmos 2266 Rocket 4.3 14:05:01 10° N 14:11:12 70° E 14:17:15 10° SSE
Cosmos 1666 4.1 14:08:28 10° SSE 14:12:03 41° E 14:15:39 10° NNE
Cosmos 2180 Rocket 4.5 14:06:08 10° SSW 14:12:09 60° W 14:18:15 10° N
SJ-7 4.2 14:10:31 10° N 14:14:30 72° WNW 14:18:27 10° SSW
Meteor 2-4 Rocket 3.6 14:10:40 10° NNW 14:16:04 67° W 14:21:21 10° S
ATLAS CENTAUR R/B 3.4 14:15:10 10° N 14:18:26 22° NE 14:21:31 10° E
GEOS 3 Rocket 3.8 14:13:37 10° SSE 14:18:34 54° WSW 14:23:27 11° NW
Cosmos 2278 Rocket 4.5 14:15:50 10° SSE 14:20:35 28° ESE 14:25:22 10° NE
USA 238 DEB 3.6 14:15:43 10° SW 14:22:19 69° NW 14:29:10 10° NNE
USA 238 3.6 14:15:49 10° SW 14:22:25 69° NW 14:29:16 10° NNE
Cosmos 2263 Rocket 3.8 14:23:38 13° WNW 14:24:15 13° NW 14:26:48 10° NNW
CZ-4 R/B 4.5 14:23:15 10° NE 14:25:41 16° E 14:28:08 10° SE
Cosmos 332 Rocket 4.2 14:21:04 10° SW 14:25:42 42° WNW 14:30:22 10° N
CENTAUR R/B 3.3 14:21:26 10° SSW 14:27:00 56° ESE 14:33:29 10° NE
AQUARIUS 4.4 14:26:15 10° NNE 14:30:46 74° ESE 14:35:13 10° S
USA 81 4.4 14:28:09 10° N 14:33:26 72° E 14:38:40 10° S
Okean 3 4.3 14:30:17 10° NNW 14:33:59 30° W 14:37:40 10° SSW
IRIDIUM 103 4.4 14:30:52 10° N 14:36:06 85° E 14:41:20 10° S
Envisat 4.2 14:33:00 10° NNE 14:37:54 47° E 14:42:47 10° S
Cosmos 1536 2.9 14:34:04 10° SSW 14:38:03 54° W 14:42:02 10° N
SMAP 3.0 14:35:10 10° N 14:39:51 82° WNW 14:44:29 10° SSW
Cosmos 1908 Rocket 3.6 14:35:24 10° S 14:39:52 84° W 14:44:21 10° N
ADEOS Rocket 3.3 14:38:13 10° SSE 14:45:14 86° ENE 14:51:33 10° NNW
H-2A R/B 2.7 14:41:55 10° N 14:45:38 58° WNW 14:49:21 10° SSW
Cosmos 405 3.6 14:42:22 10° NNW 14:45:39 36° W 14:48:53 10° SSW
Cosmos 371 Rocket 4.4 14:42:32 10° WSW 14:46:16 22° WNW 14:50:01 10° N
Cosmos 1743 4.1 14:42:47 10° SSE 14:46:24 44° E 14:50:02 10° NNE
COSMO-SKYMED 1 4.4 14:44:36 10° WSW 14:46:29 13° W 14:48:21 10° WNW
NOAA 12 4.5 14:44:58 10° NNE 14:50:12 72° ESE 14:55:25 10° S
